Location: Camp Crooked Creek
(37.9149°N, 85.6607°W)
Time: 13:17:28
(UTC-04:00)

Amateur Radio Satellites - All Passes

Search period start: 28 August 2015 12:47
Search period end: 29 August 2015 12:47
Location: Camp Crooked Creek, 37.9149°N, 85.6607°W

Satellite Date Start Highest point End Downlink Frequencies (MHz)
Time Altitude Azimuth
Oscar 19 28 Aug 12:50:07 12:50:52 10° 61° (ENE) 12:51:58 437.125/150
HO-68 28 Aug 12:53:08 12:54:08 10° 307° (NW) 12:54:36 435.675
UWE-3 28 Aug 12:59:24 13:00:23 10° 296° (WNW) 13:01:06 435.000/436.395/437.385
ZACube-1 28 Aug 13:00:34 13:02:37 13° 295° (WNW) 13:04:26 437.345
Cosmos 2504 28 Aug 13:04:08 13:12:08 45° 271° (W) 13:19:38 435.465 / 435.565
FUNcube-1 28 Aug 13:08:38 13:09:50 11° 296° (WNW) 13:10:46 145.935
POLYITAN 1 28 Aug 13:21:17 13:23:45 14° 269° (W) 13:26:02 437.675
ESTCUBE 1 28 Aug 13:23:34 13:28:00 62° 285° (WNW) 13:32:27 437.505/2401.250
POPSAT HIP 1 28 Aug 13:25:52 13:28:01 13° 270° (W) 13:29:57 437.405
DUCHIFAT 1 28 Aug 13:30:21 13:32:10 12° 270° (W) 13:33:45 145.980
PHONESAT 2.4 28 Aug 13:31:02 13:34:16 41° 206° (SSW) 13:37:30 2401.200-2431.200
GONETS M04 28 Aug 13:42:12 13:46:53 16° 61° (ENE) 13:52:10
DX 1 28 Aug 13:46:52 13:49:45 17° 293° (WNW) 13:52:27 434.975-435.025
50 SAT 28 Aug 13:48:50 13:51:17 16° 292° (WNW) 13:53:35 437.505
AISAT 28 Aug 13:52:20 13:55:51 22° 291° (WNW) 13:59:17 437.250
TISAT 1 28 Aug 13:59:30 14:03:35 44° 99° (E) 14:07:41 437.305
CUBEBUG 1 28 Aug 14:05:04 14:08:46 26° 290° (WNW) 14:12:25 437.445
UKube-1 28 Aug 14:06:58 14:08:32 11° 295° (WNW) 14:09:52 .
PCSat 28 Aug 14:11:19 14:15:57 28° 251° (WSW) 14:20:27 145.827
JAS-2 28 Aug 14:14:50 14:19:18 18° 59° (ENE) 14:24:14 435.910
SPROUT 28 Aug 14:15:27 14:19:46 64° 285° (WNW) 14:24:02 437.525
DANDE 28 Aug 14:22:34 14:28:41 27° 270° (W) 14:35:09 436.750
VELOX 1 28 Aug 14:23:23 14:25:04 12° 295° (WNW) 14:26:30 145.980
Oscar 19 28 Aug 14:24:23 14:29:32 89° 87° (E) 14:34:46 437.125/150
CUSAT 1 28 Aug 14:24:43 14:29:52 18° 274° (W) 14:34:45 437.405
Gurwin Techsat 1B 28 Aug 14:34:35 14:39:16 34° 70° (ENE) 14:44:03 435.225
BEESAT 28 Aug 14:35:39 14:38:46 18° 92° (E) 14:42:02 436.000
AO-7 28 Aug 14:37:34 14:41:07 14° 51° (NE) 14:45:10 29.400- 29.500
SWISSCUBE 28 Aug 15:00:04 15:04:24 35° 97° (E) 15:08:47 437.505
ITAMSAT 1 28 Aug 15:14:41 15:19:49 68° 75° (ENE) 15:24:59 435.822/435.867
Cosmos 2499 28 Aug 15:18:25 15:23:27 17° 61° (ENE) 15:28:48 435.465 / 435.565
ITUPSAT 1 28 Aug 15:36:20 15:41:08 78° 103° (ESE) 15:45:52 437.325
TISAT 1 28 Aug 15:36:29 15:39:00 15° 293° (WNW) 15:41:21 437.305
GONETS M04 28 Aug 15:36:30 15:45:22 84° 83° (E) 15:54:13
BEESAT 3 28 Aug 15:38:04 15:38:54 11° 109° (ESE) 15:40:00 437.485
RS-15 28 Aug 15:50:48 15:56:37 17° 101° (E) 16:03:21 29.354- 29.394
ISS 28 Aug 15:55:26 15:56:05 10° 15° (NNE) 15:56:47 145.825
JAS-2 28 Aug 15:55:48 16:03:17 84° 76° (ENE) 16:11:13 435.910
JUGNU 28 Aug 16:08:52 16:10:37 11° 173° (S) 16:12:24 437.505
BEESAT 28 Aug 16:12:20 16:16:50 43° 288° (WNW) 16:21:18 436.000
Gurwin Techsat 1B 28 Aug 16:14:45 16:19:17 28° 265° (W) 16:23:46 435.225
AO-7 28 Aug 16:24:21 16:32:34 67° 69° (ENE) 16:40:50 29.400- 29.500
SWISSCUBE 28 Aug 16:38:23 16:42:05 22° 292° (WNW) 16:45:39 437.505
STARS 28 Aug 16:39:03 16:43:05 34° 97° (E) 16:47:08 437.465
KKS-1 28 Aug 16:47:42 16:52:13 76° 102° (ESE) 16:56:41 437.445
HORYU 2 28 Aug 16:54:50 16:59:20 88° 69° (ENE) 17:03:53 437.375
ITAMSAT 1 28 Aug 16:57:28 16:59:55 13° 271° (W) 17:02:00 435.822/435.867
Cosmos 2499 28 Aug 17:09:23 17:18:11 88° 84° (E) 17:26:22 435.465 / 435.565
BEESAT 3 28 Aug 17:12:23 17:16:23 59° 303° (WNW) 17:20:25 437.485
ITUPSAT 1 28 Aug 17:17:08 17:18:26 11° 297° (WNW) 17:19:27 437.325
BEESAT 2 28 Aug 17:18:40 17:22:45 69° 302° (WNW) 17:26:52 435.950
AIST 2 28 Aug 17:29:31 17:33:08 28° 114° (ESE) 17:36:49 435.215
ISS 28 Aug 17:30:07 17:33:13 39° 34° (NE) 17:36:17 145.825
GONETS M04 28 Aug 17:35:39 17:41:15 18° 279° (W) 17:46:19
JAS-2 28 Aug 17:44:17 17:49:20 18° 274° (W) 17:54:05 435.910
JUGNU 28 Aug 17:56:30 17:58:46 12° 184° (S) 18:01:00 437.505
RS-15 28 Aug 17:56:35 18:07:29 84° 118° (ESE) 18:18:51 29.354- 29.394
Cubesat XI-IV 28 Aug 18:05:56 18:09:38 20° 66° (ENE) 18:13:31 437.490
MOZHAYETS 4 28 Aug 18:09:22 18:13:57 81° 102° (ESE) 18:18:30
STARS 28 Aug 18:15:59 18:19:19 21° 292° (WNW) 18:22:33 437.465
AO-7 28 Aug 18:19:19 18:26:02 25° 267° (W) 18:32:25 29.400- 29.500
KKS-1 28 Aug 18:27:43 18:28:17 10° 296° (WNW) 18:28:34 437.445
CUTE-I 28 Aug 18:50:25 18:55:33 51° 72° (ENE) 19:00:43 437.470
SRMSAT 28 Aug 18:59:02 19:01:32 13° 179° (S) 19:04:03 437.500
Cosmos 2499 28 Aug 19:05:01 19:10:13 17° 281° (W) 19:14:44 435.465 / 435.565
ISS 28 Aug 19:07:04 19:09:25 18° 229° (SW) 19:11:43 145.825
AIST 2 28 Aug 19:08:03 19:11:41 26° 310° (NW) 19:15:16 435.215
BRITE-PL 28 Aug 19:18:27 19:19:52 12° 64° (ENE) 19:21:32 437.365/2234.400
HO-68 28 Aug 19:42:51 19:46:44 16° 57° (ENE) 19:50:59 435.675
Cubesat XI-IV 28 Aug 19:44:15 19:49:25 49° 260° (W) 19:54:35 437.490
Cosmos 2491 28 Aug 19:51:35 19:56:03 15° 60° (ENE) 20:01:07 435.465 / 435.565
STRAND 1 28 Aug 19:52:24 19:56:09 21° 93° (E) 20:00:03 437.568
CUBESAT XI-V 28 Aug 19:52:49 19:57:28 86° 106° (ESE) 20:02:07 437.345
O/OREOS (USA 219) 28 Aug 20:03:00 20:06:53 30° 104° (ESE) 20:10:52 437.305
GOMX 1 28 Aug 20:03:58 20:07:17 22° 68° (ENE) 20:10:53 467.674
RS-15 28 Aug 20:11:53 20:21:27 31° 324° (NW) 20:31:09 29.354- 29.394
AIST 1 28 Aug 20:12:02 20:15:51 30° 77° (ENE) 20:19:42
PRISM 28 Aug 20:18:36 20:21:55 24° 95° (E) 20:25:19 437.425
SEEDS 28 Aug 20:23:14 20:23:53 10° 66° (ENE) 20:24:47 437.485
CUTE-I 28 Aug 20:32:19 20:35:59 18° 269° (W) 20:39:27 437.470
DOVE 4 28 Aug 20:34:46 20:38:34 28° 69° (ENE) 20:42:38 437.250
SRMSAT 28 Aug 20:48:39 20:49:51 11° 189° (S) 20:51:00 437.500
COMPASS 1 28 Aug 20:49:13 20:51:47 16° 68° (ENE) 20:54:30 437.405
BRITE-PL 28 Aug 20:53:40 20:57:51 59° 260° (W) 21:02:19 437.365/2234.400
AAUSAT CUBESAT 2 28 Aug 21:02:16 21:05:12 19° 69° (ENE) 21:08:15 437.432
CUTE 1.7 + AOD 2 28 Aug 21:13:38 21:17:47 51° 75° (ENE) 21:21:58 437.475
HO-68 28 Aug 21:26:26 21:33:36 87° 74° (ENE) 21:40:50 435.675
CANX-2 28 Aug 21:26:54 21:31:12 83° 77° (ENE) 21:35:31 2200.000
STRAND 1 28 Aug 21:30:46 21:35:33 41° 289° (WNW) 21:40:18 437.568
GOMX 1 28 Aug 21:41:19 21:45:15 32° 265° (W) 21:49:23 467.674
Oscar 11 28 Aug 21:41:52 21:45:20 24° 70° (ENE) 21:48:54 145.826/435.025
O/OREOS (USA 219) 28 Aug 21:42:35 21:46:19 24° 301° (WNW) 21:50:02 437.305
CINEMA 3 28 Aug 21:45:45 21:50:17 70° 76° (ENE) 21:55:05 145.822/145.860
Cosmos 2491 28 Aug 21:45:47 21:54:34 83° 82° (E) 22:03:23 435.465 / 435.565
AIST 1 28 Aug 21:50:12 21:53:18 19° 271° (W) 21:56:17
DELFI C3 28 Aug 21:51:57 21:54:46 19° 69° (ENE) 21:57:42 145.870
YUBILEINY 28 Aug 21:52:31 22:00:34 44° 89° (E) 22:08:46 435.215
PRISM 28 Aug 21:53:57 21:57:17 24° 290° (WNW) 22:00:32 437.425
SEEDS 28 Aug 21:54:56 21:59:10 65° 259° (WSW) 22:03:26 437.485
CUBEBUG 2 28 Aug 22:00:20 22:04:40 44° 73° (ENE) 22:09:09 437.445
DOVE 4 28 Aug 22:12:32 22:16:18 26° 267° (W) 22:20:11 437.250
UWE-3 28 Aug 22:14:47 22:19:09 49° 74° (ENE) 22:23:40 435.000/436.395/437.385
ZACube-1 28 Aug 22:16:13 22:20:22 38° 72° (ENE) 22:24:38 437.345
FUNcube-1 28 Aug 22:23:10 22:27:25 44° 73° (ENE) 22:31:47 145.935
COMPASS 1 28 Aug 22:23:12 22:27:10 38° 262° (W) 22:31:07 437.405
RS-15 28 Aug 22:32:38 22:39:12 16° 359° (N) 22:45:55 29.354- 29.394
AAUSAT CUBESAT 2 28 Aug 22:36:48 22:40:36 32° 264° (W) 22:44:21 437.432
CUTE 1.7 + AOD 2 28 Aug 22:52:11 22:54:03 12° 271° (W) 22:55:42 437.475
50 SAT 28 Aug 22:56:12 22:58:32 16° 68° (ENE) 23:01:00 437.505
DX 1 28 Aug 23:03:47 23:07:29 29° 70° (ENE) 23:11:16 434.975-435.025
AISAT 28 Aug 23:11:56 23:15:21 23° 69° (ENE) 23:18:53 437.250
Oscar 11 28 Aug 23:17:43 23:21:26 27° 265° (W) 23:25:06 145.826/435.025
UNISAT 6 28 Aug 23:17:43 23:20:43 18° 91° (E) 23:23:49 437.425
HO-68 28 Aug 23:18:23 23:22:21 15° 272° (W) 23:25:49 435.675
UKube-1 28 Aug 23:21:36 23:25:38 41° 73° (ENE) 23:29:43 .
CUBEBUG 1 28 Aug 23:24:07 23:26:55 18° 68° (ENE) 23:29:52 437.445
DELFI C3 28 Aug 23:26:02 23:29:39 30° 264° (W) 23:33:13 145.870
CINEMA 3 28 Aug 23:27:19 23:28:10 10° 274° (W) 23:28:41 145.822/145.860
HUMSAT D 28 Aug 23:30:13 23:34:32 81° 258° (WSW) 23:38:53 437.325/437.525
CUBEBUG 2 28 Aug 23:38:38 23:41:38 16° 270° (W) 23:44:29 437.445
VELOX 1 28 Aug 23:40:21 23:44:31 45° 73° (ENE) 23:48:45 145.980
Cosmos 2504 28 Aug 23:40:34 23:46:51 27° 84° (E) 23:53:42 435.465 / 435.565
Cosmos 2491 28 Aug 23:44:53 23:50:31 18° 279° (W) 23:55:38 435.465 / 435.565
TIGRISAT 28 Aug 23:46:50 23:51:04 35° 97° (E) 23:55:11 435.000
YUBILEINY 28 Aug 23:49:25 23:57:30 38° 288° (WNW) 00:05:31 435.215
QB50P2 28 Aug 23:52:03 23:54:16 14° 91° (E) 23:56:42 145.880/145.840
UWE-3 28 Aug 23:53:23 23:56:02 15° 271° (W) 23:58:29 435.000/436.395/437.385
ZACube-1 28 Aug 23:53:41 23:56:54 18° 269° (W) 00:00:00 437.345
NANOSAT C BR1 28 Aug 23:55:45 23:58:06 15° 91° (E) 00:00:40 145.865
FUNcube-1 29 Aug 00:01:09 00:04:00 16° 270° (W) 00:06:42 145.935
ANTELSAT 29 Aug 00:02:13 00:06:45 55° 100° (E) 00:11:09 437.575/2403.000
BUGSAT 1 29 Aug 00:04:09 00:04:44 10° 89° (E) 00:05:36 437.445
QB50P1 29 Aug 00:07:14 00:10:26 21° 93° (E) 00:13:44 145.935-145.965
AUBIESAT-1 29 Aug 00:07:17 00:11:00 37° 102° (ESE) 00:14:27 437.475
M-CUBED/EXP-1 PRIME 29 Aug 00:09:03 00:12:59 49° 103° (ESE) 00:16:35 437.505
ESTCUBE 1 29 Aug 00:21:07 00:25:36 85° 254° (WSW) 00:30:07 437.505/2401.250
50 SAT 29 Aug 00:29:07 00:32:47 35° 263° (W) 00:36:27 437.505
DX 1 29 Aug 00:40:20 00:43:45 22° 266° (W) 00:47:05 434.975-435.025
RS-15 29 Aug 00:47:45 00:57:17 28° 33° (NNE) 01:07:26 29.354- 29.394
AISAT 29 Aug 00:47:57 00:51:48 29° 264° (W) 00:55:38 437.250
TISAT 1 29 Aug 00:50:10 00:53:38 26° 70° (ENE) 00:57:13 437.305
UNISAT 6 29 Aug 00:53:24 00:57:43 39° 288° (WNW) 01:01:53 437.425
CUBEBUG 1 29 Aug 00:59:00 01:03:01 37° 262° (W) 01:07:02 437.445
UKube-1 29 Aug 00:59:21 01:01:59 15° 268° (W) 01:04:28 .
POLYITAN 1 29 Aug 01:06:05 01:10:24 78° 285° (WNW) 01:14:42 437.675
SPROUT 29 Aug 01:07:27 01:11:43 77° 76° (ENE) 01:16:02 437.525
POPSAT HIP 1 29 Aug 01:10:05 01:14:24 72° 284° (WNW) 01:18:40 437.405
DUCHIFAT 1 29 Aug 01:13:42 01:17:59 67° 284° (WNW) 01:22:12 145.980
VELOX 1 29 Aug 01:18:50 01:21:21 14° 269° (W) 01:23:41 145.980
TIGRISAT 29 Aug 01:24:07 01:27:34 21° 292° (WNW) 01:30:50 435.000
QB50P2 29 Aug 01:26:19 01:30:26 44° 287° (WNW) 01:34:30 145.880/145.840
NANOSAT C BR1 29 Aug 01:30:07 01:34:10 42° 287° (WNW) 01:38:12 145.865
Cosmos 2504 29 Aug 01:30:41 01:38:31 58° 282° (WNW) 01:46:52 435.465 / 435.565
BEESAT 3 29 Aug 01:32:23 01:36:16 44° 55° (NE) 01:40:05 437.485
BUGSAT 1 29 Aug 01:36:26 01:40:38 59° 285° (WNW) 01:44:48 437.445
BEESAT 2 29 Aug 01:39:23 01:43:12 39° 54° (NE) 01:46:59 435.950
ANTELSAT 29 Aug 01:40:38 01:43:03 14° 295° (WNW) 01:45:15 437.575/2403.000
BEESAT 29 Aug 01:40:51 01:43:57 18° 67° (ENE) 01:47:13 436.000
QB50P1 29 Aug 01:42:33 01:46:21 30° 289° (WNW) 01:50:04 145.935-145.965
AUBIESAT-1 29 Aug 01:42:59 01:45:22 15° 299° (WNW) 01:47:32 437.475
M-CUBED/EXP-1 PRIME 29 Aug 01:45:25 01:47:18 13° 301° (WNW) 01:48:56 437.505
CUSAT 1 29 Aug 01:46:42 01:50:06 71° 280° (W) 01:54:40 437.405
DANDE 29 Aug 01:50:27 01:53:28 65° 96° (E) 01:57:24 436.750
AIST 2 29 Aug 01:53:35 01:55:39 14° 43° (NE) 01:57:51 435.215
SWISSCUBE 29 Aug 02:04:59 02:09:14 34° 71° (ENE) 02:13:33 437.505
TISAT 1 29 Aug 02:26:00 02:29:23 23° 266° (W) 02:32:41 437.305
SO-50 29 Aug 02:37:17 02:41:55 57° 117° (ESE) 02:46:44 436.795
Oscar 19 29 Aug 02:38:01 02:42:46 36° 97° (E) 02:47:33 437.125/150
ITUPSAT 1 29 Aug 02:41:14 02:46:00 74° 74° (ENE) 02:50:47 437.325
GONETS M04 29 Aug 02:42:26 02:47:39 19° 81° (E) 02:53:22
Gurwin Techsat 1B 29 Aug 02:53:41 02:56:32 15° 90° (E) 02:59:39 435.225
RS-15 29 Aug 02:59:55 03:11:53 84° 59° (ENE) 03:24:12 29.354- 29.394
PCSat 29 Aug 03:07:20 03:12:28 47° 112° (ESE) 03:17:41 145.827
BEESAT 3 29 Aug 03:11:40 03:13:50 14° 250° (WSW) 03:15:49 437.485
JAS-2 29 Aug 03:11:52 03:14:23 13° 82° (E) 03:17:18 435.910
BEESAT 29 Aug 03:16:53 03:21:29 45° 261° (W) 03:26:04 436.000
BEESAT 2 29 Aug 03:18:23 03:20:57 16° 249° (WSW) 03:23:20 435.950
ITAMSAT 1 29 Aug 03:29:48 03:34:08 27° 95° (E) 03:38:34 435.822/435.867
AIST 2 29 Aug 03:30:33 03:34:41 64° 242° (WSW) 03:38:44 435.215
STARS 29 Aug 03:34:31 03:38:04 25° 69° (ENE) 03:41:43 437.465
SWISSCUBE 29 Aug 03:43:23 03:47:10 23° 266° (W) 03:50:51 437.505
KKS-1 29 Aug 03:43:57 03:48:16 54° 74° (ENE) 03:52:40 437.445
Cosmos 2499 29 Aug 03:55:40 03:58:33 13° 77° (ENE) 04:02:11 435.465 / 435.565
Oscar 19 29 Aug 04:17:42 04:21:58 26° 292° (WNW) 04:26:07 437.125/150
SO-50 29 Aug 04:19:20 04:22:52 19° 316° (NW) 04:26:23 436.795
AO-7 29 Aug 04:29:10 04:35:13 23° 92° (E) 04:41:36 29.400- 29.500
Gurwin Techsat 1B 29 Aug 04:31:46 04:37:00 61° 287° (WNW) 04:42:13 435.225
GONETS M04 29 Aug 04:34:53 04:43:35 81° 279° (W) 04:52:20
HORYU 2 29 Aug 04:48:47 04:51:53 19° 93° (E) 04:55:08 437.375
PCSat 29 Aug 04:51:46 04:56:10 24° 310° (NW) 05:00:29 145.827
JAS-2 29 Aug 04:53:36 05:00:49 89° 103° (ESE) 05:07:07 435.910
VERMONT LUNAR 29 Aug 04:56:00 04:58:03 17° 148° (SSE) 05:00:07 437.305
ITAMSAT 1 29 Aug 05:09:03 05:13:40 33° 291° (WNW) 05:18:14 435.822/435.867
MOZHAYETS 4 29 Aug 05:09:16 05:13:49 61° 75° (ENE) 05:18:24
STARS 29 Aug 05:10:39 05:14:26 27° 265° (W) 05:18:10 437.465
RS-15 29 Aug 05:14:08 05:23:21 25° 256° (WSW) 05:32:05 29.354- 29.394
KKS-1 29 Aug 05:23:21 05:25:19 12° 270° (W) 05:27:02 437.445
Cosmos 2499 29 Aug 05:42:04 05:50:20 76° 94° (E) 05:59:09 435.465 / 435.565
O/OREOS (USA 219) 29 Aug 06:14:09 06:18:32 43° 64° (ENE) 06:22:56 437.305
AO-7 29 Aug 06:20:31 06:28:47 70° 290° (WNW) 06:36:58 29.400- 29.500
HORYU 2 29 Aug 06:24:34 06:28:40 35° 289° (WNW) 06:32:41 437.375
VERMONT LUNAR 29 Aug 06:31:14 06:34:13 85° 164° (SSE) 06:37:13 437.305
GONETS M04 29 Aug 06:37:24 06:42:10 15° 300° (WNW) 06:46:20
JAS-2 29 Aug 06:40:38 06:44:50 16° 302° (WNW) 06:48:28 435.910
MOZHAYETS 4 29 Aug 06:49:46 06:51:31 12° 271° (W) 06:52:58
CUBESAT XI-V 29 Aug 06:54:16 06:58:49 67° 76° (ENE) 07:03:25 437.345
STRAND 1 29 Aug 07:06:37 07:10:45 26° 68° (ENE) 07:15:00 437.568
PRISM 29 Aug 07:07:57 07:10:14 15° 67° (ENE) 07:12:41 437.425
CUTE-I 29 Aug 07:09:53 07:14:00 23° 93° (E) 07:18:16 437.470
Cosmos 2499 29 Aug 07:38:10 07:44:37 22° 296° (WNW) 07:50:53 435.465 / 435.565
PHONESAT 2.4 29 Aug 07:51:38 07:54:50 40° 155° (SSE) 07:58:03 2401.200-2431.200
O/OREOS (USA 219) 29 Aug 07:54:42 07:57:38 16° 259° (W) 08:00:23 437.305
Cubesat XI-IV 29 Aug 08:03:02 08:08:22 77° 102° (ESE) 08:13:42 437.490
YUBILEINY 29 Aug 08:05:45 08:11:26 19° 63° (ENE) 08:17:34 435.215
VERMONT LUNAR 29 Aug 08:07:54 08:10:48 47° 359° (N) 08:13:43 437.305
AO-7 29 Aug 08:15:57 08:20:18 15° 309° (NW) 08:24:11 29.400- 29.500
CUBESAT XI-V 29 Aug 08:36:04 08:36:49 10° 272° (W) 08:37:14 437.345
DOVE 4 29 Aug 08:37:55 08:38:42 10° 86° (E) 08:39:54 437.250
AIST 1 29 Aug 08:40:26 08:43:26 20° 89° (E) 08:46:34
PRISM 29 Aug 08:41:30 08:45:22 40° 261° (W) 08:49:14 437.425
STRAND 1 29 Aug 08:45:13 08:49:51 34° 263° (W) 08:54:26 437.568
CUTE-I 29 Aug 08:49:18 08:54:15 40° 290° (WNW) 08:59:10 437.470
Cosmos 2491 29 Aug 08:51:55 08:57:02 18° 81° (E) 09:02:41 435.465 / 435.565
HO-68 29 Aug 08:57:54 09:02:16 18° 90° (E) 09:07:01 435.675
BRITE-PL 29 Aug 08:58:55 09:04:16 53° 99° (E) 09:09:49 437.365/2234.400
CANX-2 29 Aug 09:15:13 09:17:47 16° 91° (E) 09:20:28 2200.000
PHONESAT 2.4 29 Aug 09:29:18 09:32:41 64° 351° (N) 09:36:04 2401.200-2431.200
SEEDS 29 Aug 09:41:35 09:44:52 22° 94° (E) 09:48:12 437.485
CINEMA 3 29 Aug 09:43:13 09:46:56 21° 92° (E) 09:50:44 145.822/145.860
GOMX 1 29 Aug 09:43:25 09:48:52 83° 100° (E) 09:54:24 467.674
VERMONT LUNAR 29 Aug 09:44:26 09:47:25 82° 16° (NNE) 09:50:25 437.305
Cubesat XI-IV 29 Aug 09:45:19 09:47:54 13° 297° (WNW) 09:50:11 437.490
CUBEBUG 2 29 Aug 09:55:48 09:57:00 11° 87° (E) 09:58:31 437.445
YUBILEINY 29 Aug 10:00:42 10:09:35 84° 264° (W) 10:18:23 435.215
ISS 29 Aug 10:07:57 10:10:48 29° 134° (SE) 10:13:40 145.825
COMPASS 1 29 Aug 10:08:09 10:11:58 35° 97° (E) 10:15:48 437.405
UWE-3 29 Aug 10:08:50 10:10:20 12° 88° (E) 10:12:06 435.000/436.395/437.385
DOVE 4 29 Aug 10:11:50 10:17:11 85° 284° (WNW) 10:22:29 437.250
UNISAT 6 29 Aug 10:15:41 10:18:04 14° 66° (ENE) 10:20:41 437.425
AIST 1 29 Aug 10:17:13 10:20:56 28° 284° (WNW) 10:24:36
AAUSAT CUBESAT 2 29 Aug 10:20:57 10:24:53 42° 98° (E) 10:28:49 437.432
CUTE 1.7 + AOD 2 29 Aug 10:36:12 10:40:23 61° 285° (WNW) 10:44:31 437.475
BRITE-PL 29 Aug 10:38:24 10:42:27 21° 292° (WNW) 10:46:26 437.365/2234.400
CUSAT 1 29 Aug 10:41:51 10:45:42 15° 62° (ENE) 10:50:16 437.405
HO-68 29 Aug 10:43:36 10:50:49 77° 287° (WNW) 10:57:59 435.675
TIGRISAT 29 Aug 10:43:50 10:47:41 27° 70° (ENE) 10:51:40 435.000
Cosmos 2491 29 Aug 10:44:16 10:53:00 82° 278° (W) 11:01:45 435.465 / 435.565
DANDE 29 Aug 10:49:41 10:51:11 11° 61° (ENE) 10:53:26 436.750
CANX-2 29 Aug 10:49:57 10:53:53 37° 287° (WNW) 10:57:45 2200.000
AUBIESAT-1 29 Aug 10:51:43 10:56:11 43° 68° (ENE) 11:00:40 437.475
M-CUBED/EXP-1 PRIME 29 Aug 10:53:53 10:58:32 54° 69° (ENE) 11:03:13 437.505
ANTELSAT 29 Aug 10:59:07 11:03:27 40° 72° (ENE) 11:07:53 437.575/2403.000
QB50P1 29 Aug 10:59:34 11:01:30 13° 66° (ENE) 11:03:40 145.935-145.965
Oscar 11 29 Aug 11:05:57 11:10:14 61° 100° (E) 11:14:29 145.826/435.025
DELFI C3 29 Aug 11:06:15 11:09:58 37° 97° (E) 11:13:40 145.870
PHONESAT 2.4 29 Aug 11:07:25 11:10:46 57° 7° (N) 11:14:08 2401.200-2431.200
SO-50 29 Aug 11:10:40 11:15:08 34° 51° (NE) 11:19:33 436.795
HUMSAT D 29 Aug 11:17:01 11:19:56 18° 92° (E) 11:22:56 437.325/437.525
SEEDS 29 Aug 11:17:06 11:20:37 26° 289° (WNW) 11:24:04 437.485
Cosmos 2504 29 Aug 11:19:29 11:27:32 45° 75° (ENE) 11:35:13 435.465 / 435.565
CINEMA 3 29 Aug 11:19:35 11:24:18 39° 288° (WNW) 11:28:50 145.822/145.860
VERMONT LUNAR 29 Aug 11:21:17 11:23:40 21° 210° (SSW) 11:26:01 437.305
GOMX 1 29 Aug 11:23:49 11:26:23 13° 296° (WNW) 11:28:39 467.674
CUBEBUG 2 29 Aug 11:29:34 11:34:16 65° 285° (WNW) 11:38:48 437.445
ZACube-1 29 Aug 11:42:30 11:47:03 80° 283° (WNW) 11:51:27 437.345
UWE-3 29 Aug 11:42:47 11:47:22 60° 285° (WNW) 11:51:47 435.000/436.395/437.385
ISS 29 Aug 11:44:20 11:47:10 27° 329° (NNW) 11:50:01 145.825
COMPASS 1 29 Aug 11:44:38 11:47:24 17° 291° (WNW) 11:50:00 437.405
FUNcube-1 29 Aug 11:49:18 11:53:48 69° 284° (WNW) 11:58:11 145.935
UNISAT 6 29 Aug 11:49:49 11:54:24 57° 261° (W) 11:59:03 437.425
DOVE 4 29 Aug 11:52:53 11:54:12 11° 297° (WNW) 11:55:10 437.250
POLYITAN 1 29 Aug 11:56:59 12:01:10 62° 75° (ENE) 12:05:25 437.675
PCSat 29 Aug 11:57:09 12:01:44 28° 51° (NE) 12:06:23 145.827
AAUSAT CUBESAT 2 29 Aug 11:57:49 12:00:10 14° 292° (WNW) 12:02:19 437.432
YUBILEINY 29 Aug 12:00:41 12:05:15 14° 281° (W) 12:09:09 435.215
POPSAT HIP 1 29 Aug 12:00:45 12:04:56 67° 76° (ENE) 12:09:12 437.405
DUCHIFAT 1 29 Aug 12:03:53 12:08:04 70° 76° (ENE) 12:12:18 145.980
50 SAT 29 Aug 12:05:59 12:09:15 26° 96° (E) 12:12:32 437.505
ESTCUBE 1 29 Aug 12:16:09 12:19:40 23° 94° (E) 12:23:16 437.505/2401.250
QB50P2 29 Aug 12:16:56 12:21:10 75° 258° (WSW) 12:25:27 145.880/145.840
NANOSAT C BR1 29 Aug 12:20:17 12:24:30 72° 258° (WSW) 12:28:46 145.865
TIGRISAT 29 Aug 12:20:19 12:24:21 28° 265° (W) 12:28:22 435.000
CUSAT 1 29 Aug 12:21:44 12:29:24 76° 80° (E) 12:37:41 437.405
BUGSAT 1 29 Aug 12:24:26 12:28:27 74° 76° (ENE) 12:32:33 437.445
AUBIESAT-1 29 Aug 12:27:35 12:31:02 19° 263° (W) 12:34:20 437.475
DANDE 29 Aug 12:28:18 12:35:36 61° 78° (ENE) 12:44:00 436.750
DX 1 29 Aug 12:29:06 12:33:29 70° 102° (ESE) 12:37:50 434.975-435.025
M-CUBED/EXP-1 PRIME 29 Aug 12:30:37 12:33:36 16° 265° (W) 12:36:24 437.505
QB50P1 29 Aug 12:32:52 12:36:58 49° 261° (W) 12:41:08 145.935-145.965
HO-68 29 Aug 12:33:57 12:37:32 14° 304° (NW) 12:40:44 435.675
ANTELSAT 29 Aug 12:37:05 12:40:24 19° 268° (W) 12:43:37 437.575/2403.000
DELFI C3 29 Aug 12:42:22 12:44:44 15° 292° (WNW) 12:46:57 145.870
Oscar 11 29 Aug 12:44:28 12:45:56 11° 295° (WNW) 12:47:12 145.826/435.025
